DW6648 Weather Reports


time (UTC)temp
C
wind
direction
speed
KPH
gust
KPH
rain 1hr
cm
rain 24hr
cm
rain mn
cm
humidity
%
barometer
mb
20260502163309 13 134 0.0 0.0 0.03 0.13 0.13 88 1011.4
20260502162809 13 105 0.0 0.0 0.03 0.13 0.13 88 1011.5
20260502161809 13 92 0.0 0.0 0.00 0.10 0.10 88 1011.5
20260502160308 12 101 0.0 0.0 0.00 0.10 0.10 88 1011.8
20260502151308 12 95 0.0 0.0 0.05 0.10 0.10 86 1012.4
20260502150809 12 90 0.0 0.0 0.05 0.10 0.10 86 1012.5
20260502130307 18 141 0.0 0.0 0.00 0.00 0.00 63 1013.7
20260502123807 18 103 0.0 0.0 0.00 0.00 0.00 61 1014.0
20260502123307 18 122 0.0 0.0 0.00 0.00 0.00 61 1014.3
20260502120806 17 144 0.0 0.0 0.00 0.00 0.00 59 1014.8
20260502120306 17 146 0.0 0.0 0.00 0.00 0.00 59 1014.9
20260502115306 17 187 0.0 0.0 0.00 0.00 0.00 58 1014.8
20260502114805 17 181 0.0 0.0 0.00 0.00 0.00 59 1014.9
20260502113305 18 203 0.0 0.0 0.00 0.00 0.00 60 1015.0
20260502112805 19 141 0.0 0.0 0.00 0.00 0.00 61 1015.1
20260502112306 19 172 0.0 0.0 0.00 0.00 0.00 63 1015.1
20260502111805 18 195 0.0 0.0 0.00 0.00 0.00 64 1015.1
20260502110807 18 86 0.0 0.0 0.00 0.00 0.00 65 1015.2
20260502110304 18 129 0.0 0.0 0.00 0.00 0.00 65 1015.3
20260502105306 18 188 0.0 0.0 0.00 0.00 0.00 67 1015.5
20260502103305 17 119 0.0 0.0 0.00 0.00 0.00 66 1015.9
20260502102805 17 100 0.0 0.0 0.00 0.00 0.00 67 1015.9
20260502101304 17 107 0.0 0.0 0.00 0.00 0.00 71 1016.2
20260502100805 16 139 0.0 0.0 0.00 0.00 0.00 72 1016.2
20260502100304 16 125 0.0 0.0 0.00 0.00 0.00 72 1016.4
20260502091304 15 123 0.0 0.0 0.00 0.00 0.00 80 1016.8
20260502071328 11 200 0.0 0.0 0.00 0.00 0.00 90 1017.8
20260502070327 10 103 0.0 0.0 0.00 0.00 0.00 90 1017.8
20260502065828 10 121 0.0 0.0 0.00 0.00 0.00 90 1017.9
20260502064828 10 72 0.0 0.0 0.00 0.00 0.00 90 1017.8
20260502064327 10 72 0.0 0.0 0.00 0.00 0.00 90 1017.8
20260502063827 10 72 0.0 0.0 0.00 0.00 0.00 90 1017.7
20260502061828 10 21 0.0 0.0 0.00 0.00 0.00 90 1017.6
20260502060326 10 12 0.0 0.0 0.00 0.00 0.00 90 1017.8
20260502055327 10 12 0.0 0.0 0.00 0.00 0.00 90 1017.8
20260502054827 10 28 0.0 0.0 0.00 0.00 0.00 90 1017.7
20260502054327 10 63 0.0 0.0 0.00 0.00 0.00 89 1017.7
20260502052326 10 76 0.0 0.0 0.00 0.00 0.00 89 1017.7
20260502051826 10 96 0.0 0.0 0.00 0.00 0.00 89 1017.6
20260502050325 10 96 0.0 0.0 0.00 0.00 0.00 89 1017.9
20260502045325 10 95 0.0 0.0 0.00 0.00 0.00 89 1017.9
20260502044325 10 95 0.0 0.0 0.00 0.00 0.00 89 1017.9
20260502043825 10 122 0.0 0.0 0.00 0.00 0.00 89 1017.8
20260502043325 10 213 0.0 0.0 0.00 0.00 0.00 89 1017.8
20260502041325 10 193 0.0 0.0 0.00 0.00 0.00 89 1017.9
20260502040825 10 193 0.0 0.0 0.00 0.00 0.00 89 1018.0
20260502035324 10 193 0.0 0.0 0.00 0.00 0.00 89 1018.1
20260502034324 10 239 0.0 0.0 0.00 0.00 0.00 89 1018.2
20260502032824 10 244 0.0 0.0 0.00 0.00 0.00 89 1018.1
20260502032324 10 303 0.0 0.0 0.00 0.00 0.00 89 1018.2
20260502031323 10 315 0.0 0.0 0.00 0.00 0.00 89 1018.2
20260502025323 10 305 0.0 0.0 0.00 0.00 0.00 89 1018.3
20260502024823 10 301 0.0 0.0 0.00 0.00 0.00 89 1018.4
20260502024323 10 319 0.0 0.0 0.00 0.00 0.00 89 1018.5
20260502022322 10 303 0.0 0.0 0.00 0.00 0.00 88 1018.7
20260502021822 10 322 0.0 0.0 0.00 0.00 0.00 88 1018.7
20260502021322 9 333 0.0 0.0 0.00 0.00 0.00 88 1018.7
20260502020823 9 311 0.0 0.0 0.00 0.00 0.00 88 1018.7
20260502015822 9 240 0.0 0.0 0.00 0.00 0.00 87 1018.9
20260502014821 8 240 0.0 0.0 0.00 0.00 0.00 86 1018.9
20260502014321 8 240 0.0 0.0 0.00 0.00 0.00 86 1018.8
20260502012821 8 240 0.0 0.0 0.00 0.00 0.00 86 1019.0
20260502012321 8 240 0.0 0.0 0.00 0.00 0.00 86 1019.1
20260502011822 8 240 0.0 0.0 0.00 0.00 0.00 86 1019.1
20260502011321 9 240 0.0 0.0 0.00 0.00 0.00 86 1019.1
20260502010821 9 240 0.0 0.0 0.00 0.00 0.00 86 1019.1
20260502005821 9 240 0.0 0.0 0.00 0.00 0.00 86 1019.1
20260502003820 10 240 0.0 0.0 0.00 0.00 0.00 87 1019.2
20260502002319 10 240 0.0 0.0 0.00 0.00 0.00 87 1019.4
20260502001819 10 240 0.0 0.0 0.00 0.00 0.00 87 1019.4
20260502000319 10 240 0.0 0.0 0.00 0.00 0.00 86 1019.5
20260501235318 10 242 0.0 0.0 0.00 0.00 0.00 86 1019.4
20260501233318 10 210 0.0 0.0 0.00 0.00 0.00 86 1019.6
20260501230318 11 234 0.0 0.0 0.00 0.00 0.00 86 1019.9
20260501225820 11 242 0.0 0.0 0.00 0.00 0.00 87 1020.0
20260501225318 11 235 0.0 0.0 0.00 0.00 0.00 86 1020.0
20260501223318 11 238 0.0 0.0 0.00 0.00 0.00 86 1020.1
20260501222318 11 243 0.0 0.0 0.00 0.00 0.00 86 1020.1
20260501221818 11 239 0.0 0.0 0.00 0.00 0.00 86 1020.1
20260501215317 11 270 0.0 0.0 0.00 0.00 0.00 85 1020.0
20260501214817 11 239 0.0 0.0 0.00 0.00 0.00 85 1020.0
20260501213817 12 225 0.0 0.0 0.00 0.00 0.00 85 1019.9
20260501213317 12 230 0.0 0.0 0.00 0.00 0.00 85 1020.0
20260501212317 11 252 0.0 0.0 0.00 0.00 0.00 84 1019.9
20260501211817 11 259 0.0 0.0 0.00 0.00 0.00 84 1019.9
20260501211317 11 247 0.0 0.0 0.00 0.00 0.00 84 1019.9
20260501210817 11 250 0.0 0.0 0.00 0.00 0.00 84 1019.9
20260501210316 11 267 0.0 0.0 0.00 0.00 0.00 84 1019.8
20260501203816 11 271 0.0 0.0 0.00 0.00 0.00 83 1019.8
20260501203316 12 265 0.0 0.0 0.00 0.00 0.00 82 1019.8
20260501202816 12 247 0.0 0.0 0.00 0.00 0.00 82 1019.8
20260501201316 12 247 0.0 0.0 0.00 0.00 0.00 82 1019.7
20260501200816 12 238 0.0 0.0 0.00 0.00 0.00 81 1019.7
20260501195315 12 248 0.0 0.0 0.00 0.00 0.00 81 1019.4
20260501194815 12 236 0.0 0.0 0.00 0.00 0.00 80 1019.5
20260501193315 12 243 0.0 0.0 0.00 0.00 0.00 80 1019.3
20260501192815 12 235 0.0 0.0 0.00 0.00 0.00 79 1019.3
20260501190816 13 241 0.0 0.0 0.00 0.00 0.00 78 1019.2
20260501184814 14 245 0.0 0.0 0.00 0.00 0.00 76 1019.2
20260501184314 14 254 0.0 0.0 0.00 0.00 0.00 75 1019.2
20260501183814 14 245 0.0 0.0 0.00 0.00 0.00 75 1019.2
20260501183315 14 246 0.0 0.0 0.00 0.00 0.00 75 1019.2
20260501182313 15 263 0.0 0.0 0.00 0.00 0.00 74 1019.1
20260501181813 15 238 0.0 0.0 0.00 0.00 0.00 74 1019.1
20260501180813 15 266 0.0 0.0 0.00 0.00 0.00 73 1019.2
20260501175813 15 290 0.0 0.0 0.00 0.00 0.00 72 1019.1
20260501174813 15 250 0.0 0.0 0.00 0.00 0.00 72 1019.1
20260501174313 16 220 0.0 0.0 0.00 0.00 0.00 72 1019.0
20260501173813 16 209 0.0 0.0 0.00 0.00 0.00 72 1019.0
20260501173313 16 264 0.0 0.0 0.00 0.00 0.00 71 1019.1
20260501165812 16 198 0.0 0.0 0.00 0.00 0.00 71 1019.2
20260501164813 16 233 0.0 0.0 0.00 0.00 0.00 70 1019.2